FW0150 Weather Reports


Display with metric or nautical units.
time (UTC)temp
F
wind
direction
speed
MPH
gust
MPH
rain 1hr
in
rain 24hr
in
rain mn
in
humidity
%
barometer
mb
20260906083132 75 4 1.0 4.0 0.00 0.01 0.01 87 1023.0
20260906082636 75 20 1.0 3.0 0.00 0.01 0.01 87 1023.0
20260906082135 74 326 0.0 2.0 0.00 0.01 0.01 89 1023.0
20260906081631 73 310 1.0 2.0 0.00 0.01 0.01 90 1023.1
20260906081137 73 8 0.0 2.0 0.00 0.01 0.01 92 1023.0
20260906080633 72 313 1.0 2.0 0.00 0.01 0.01 93 1023.0
20260906080132 71 13 2.0 2.0 0.00 0.01 0.01 94 1022.9
20260906075626 71 38 1.0 2.0 0.00 0.01 0.01 95 1022.9
20260906075134 71 340 0.0 3.0 0.00 0.01 0.01 94 1022.9
20260906074622 70 8 2.0 3.0 0.00 0.01 0.01 94 1022.9
20260906074125 70 7 1.0 2.0 0.00 0.01 0.01 95 1022.8
20260906073612 70 348 2.0 2.0 0.00 0.01 0.01 94 1022.8
20260906073109 70 0 1.0 2.0 0.00 0.01 0.01 95 1022.7
20260906072610 70 350 0.0 2.0 0.00 0.01 0.01 95 1022.7
20260906072103 69 47 1.0 2.0 0.00 0.01 0.01 95 1022.7
20260906071604 69 250 0.0 1.0 0.00 0.01 0.01 95 1022.6
20260906071103 69 200 0.0 1.0 0.00 0.01 0.01 96 1022.7
20260906070603 69 138 0.0 1.0 0.00 0.01 0.01 95 1022.6
20260906065554 68 145 0.0 1.0 0.00 0.01 0.01 96 1022.5
20260906065054 68 145 0.0 0.0 0.00 0.01 0.01 96 1022.5
20260906064558 68 145 0.0 0.0 0.00 0.01 0.01 96 1022.5
20260906064055 68 145 0.0 1.0 0.00 0.01 0.01 96 1022.5
20260906063553 68 145 0.0 1.0 0.00 0.01 0.01 96 1022.4
20260906062553 68 199 0.0 1.0 0.00 0.01 0.01 96 1022.4
20260906062053 68 183 0.0 0.0 0.00 0.01 0.01 96 1022.4
20260906061555 67 185 0.0 0.0 0.00 0.01 0.01 96 1022.4
20260906061042 67 183 0.0 0.0 0.00 0.01 0.01 96 1022.3
20260906060550 67 183 0.0 0.0 0.00 0.01 0.01 96 1022.2
20260906055034 67 168 0.0 0.0 0.00 0.01 0.01 96 1022.2
20260906054535 66 168 0.0 1.0 0.00 0.01 0.01 96 1022.1
20260906053534 67 193 0.0 1.0 0.01 0.01 0.01 96 1022.1
20260906053033 67 159 0.0 0.0 0.01 0.01 0.01 96 1022.1
20260906052532 67 152 0.0 0.0 0.01 0.01 0.01 96 1022.1
20260906052034 66 142 0.0 1.0 0.01 0.01 0.01 96 1022.1
20260906051535 66 142 0.0 1.0 0.01 0.01 0.01 96 1022.0
20260906051027 67 243 0.0 1.0 0.01 0.01 0.01 96 1021.9
20260906050037 67 243 0.0 1.0 0.01 0.00 0.01 96 1021.9
20260906045031 67 243 0.0 1.0 0.01 0.00 0.01 96 1022.0
20260906044524 67 217 0.0 2.0 0.01 0.00 0.01 96 1021.9
20260906044028 67 217 1.0 2.0 0.01 0.00 0.00 96 1021.9
20260906043527 67 207 2.0 2.0 0.00 0.00 0.00 96 1021.9
20260906042528 67 227 2.0 2.0 0.00 0.00 0.00 96 1022.0
20260906041022 67 226 2.0 3.0 0.00 0.00 0.00 96 1021.8
20260906040525 67 228 2.0 3.0 0.00 0.00 0.00 96 1021.7
20260906040021 67 237 2.0 3.0 0.00 0.00 0.00 96 1021.7
20260906035521 67 241 2.0 3.0 0.00 0.00 0.00 96 1021.7
20260906035018 67 220 2.0 4.0 0.00 0.00 0.00 96 1021.6
20260906034456 67 226 3.0 5.0 0.00 0.00 0.00 96 1021.6
20260906033449 67 219 4.0 5.0 0.00 0.00 0.00 96 1021.5
20260906032952 67 227 4.0 5.0 0.00 0.00 0.00 96 1021.5
20260906032451 67 228 4.0 6.0 0.00 0.00 0.00 96 1021.6
20260906031951 67 231 4.0 6.0 0.00 0.00 0.00 95 1021.6
20260906031447 67 233 6.0 6.0 0.00 0.00 0.00 96 1021.5
20260906030947 68 221 5.0 6.0 0.00 0.00 0.00 96 1021.4
20260906025934 68 219 5.0 6.0 0.00 0.00 0.00 96 1021.5
20260906024936 68 230 5.0 6.0 0.00 0.00 0.00 95 1021.4
20260906024431 68 226 5.0 7.0 0.00 0.00 0.00 95 1021.5
20260906023934 67 227 6.0 7.0 0.00 0.00 0.00 95 1021.5
20260906023434 67 219 6.0 7.0 0.00 0.00 0.00 95 1021.5
20260906022935 67 226 6.0 6.0 0.00 0.00 0.00 95 1021.5
20260906022435 67 223 4.0 6.0 0.00 0.00 0.00 95 1021.5
20260906021932 67 243 4.0 6.0 0.00 0.00 0.00 94 1021.4
20260906021436 67 238 4.0 9.0 0.00 0.00 0.00 94 1021.4
20260906020931 68 240 5.0 9.0 0.00 0.00 0.00 95 1021.4
20260906020426 68 221 7.0 9.0 0.00 0.00 0.00 94 1021.5
20260906015924 68 217 6.0 10.0 0.00 0.00 0.00 94 1021.5
20260906015424 68 237 6.0 10.0 0.00 0.00 0.00 93 1021.4
20260906014422 69 234 6.0 7.0 0.00 0.00 0.00 93 1021.5
20260906013919 69 233 3.0 4.0 0.00 0.00 0.00 93 1021.5
20260906013415 69 204 1.0 5.0 0.00 0.00 0.00 92 1021.6
20260906012409 69 228 4.0 5.0 0.00 0.00 0.00 91 1021.5
20260906011904 69 227 5.0 5.0 0.00 0.00 0.00 91 1021.6
20260906011348 69 219 2.0 3.0 0.00 0.00 0.00 91 1021.7
20260906010850 69 231 2.0 3.0 0.00 0.00 0.00 91 1021.7
20260906010347 69 224 0.0 2.0 0.00 0.00 0.00 91 1021.6
20260906005848 69 202 1.0 2.0 0.00 0.00 0.00 92 1021.6
20260906005349 70 248 1.0 2.0 0.00 0.00 0.00 92 1021.7
20260906004851 70 214 0.0 3.0 0.00 0.00 0.00 91 1021.7
20260906004355 70 227 2.0 3.0 0.00 0.00 0.00 92 1021.7
20260906003846 70 228 0.0 4.0 0.00 0.00 0.00 91 1021.7
20260906003345 70 238 3.0 5.0 0.00 0.00 0.00 91 1021.8
20260906002343 71 227 4.0 5.0 0.00 0.00 0.00 92 1021.7
20260906001839 70 227 0.0 3.0 0.00 0.00 0.00 93 1021.7
20260906001335 69 103 0.0 0.0 0.00 0.00 0.00 93 1021.8
20260906000830 68 103 0.0 0.0 0.00 0.00 0.00 90 1021.8
20260906000330 70 49 0.0 0.0 0.00 0.00 0.00 91 1021.8
20260905235826 70 235 0.0 1.0 0.00 0.00 0.00 92 1021.7
20260905235325 70 234 0.0 3.0 0.00 0.00 0.00 91 1021.8
20260905234826 70 217 2.0 3.0 0.00 0.00 0.00 91 1021.8
20260905234321 70 250 2.0 3.0 0.00 0.00 0.00 92 1021.8
20260905233822 70 240 3.0 3.0 0.00 0.00 0.00 92 1021.8
20260905233314 70 214 0.0 3.0 0.00 0.00 0.00 91 1021.9
20260905232311 70 227 3.0 4.0 0.00 0.00 0.00 92 1021.8
20260905231808 70 183 3.0 4.0 0.00 0.00 0.00 91 1021.9
20260905231253 70 169 0.0 3.0 0.00 0.00 0.00 90 1021.9
20260905230244 70 203 2.0 4.0 0.00 0.00 0.00 91 1021.8
20260905225743 70 180 2.0 5.0 0.00 0.00 0.00 90 1021.8
20260905225246 70 206 2.0 7.0 0.00 0.00 0.00 90 1021.8
20260905224744 70 223 6.0 7.0 0.00 0.00 0.00 90 1021.6
20260905224243 71 224 5.0 7.0 0.00 0.00 0.00 89 1021.6
20260905223331 71 217 4.0 5.0 0.00 0.00 0.00 89 1021.7
20260905223109 71 230 2.0 4.0 0.00 0.00 0.00 88 1021.7
20260905222843 71 214 3.0 3.0 0.00 0.00 0.00 88 1021.6
20260905222637 72 228 2.0 4.0 0.00 0.00 0.00 87 1021.8
20260905222414 72 151 1.0 5.0 0.00 0.00 0.00 87 1021.8
20260905221755 72 154 4.0 6.0 0.00 0.00 0.00 86 1021.7
20260905215200 72 159 4.0 5.0 0.00 0.00 0.00 87 1021.6
20260905214156 72 210 4.0 5.0 0.00 0.00 0.00 87 1021.5
20260905213657 73 237 0.0 9.0 0.00 0.00 0.00 86 1021.5
20260905213157 73 240 5.0 11.0 0.00 0.00 0.00 86 1021.5
20260905212659 73 197 6.0 11.0 0.00 0.00 0.00 86 1021.4
20260905212142 73 214 7.0 7.0 0.00 0.00 0.00 87 1021.3
20260905211643 72 204 5.0 6.0 0.00 0.00 0.00 87 1021.4
20260905211142 72 231 4.0 6.0 0.00 0.00 0.00 87 1021.3
20260905210646 73 231 4.0 6.0 0.00 0.00 0.00 86 1021.3
20260905210140 73 212 4.0 7.0 0.00 0.00 0.00 86 1021.4
20260905205148 73 235 3.0 10.0 0.00 0.00 0.00 84 1021.3
20260905204620 73 203 7.0 10.0 0.00 0.00 0.00 85 1021.3
20260905204114 73 204 7.0 9.0 0.00 0.00 0.00 84 1021.3
20260905203610 73 221 4.0 5.0 0.00 0.00 0.00 83 1021.3
20260905203103 73 257 2.0 7.0 0.00 0.00 0.00 83 1021.3
20260905202603 74 178 3.0 7.0 0.00 0.00 0.00 82 1021.3
20260905202056 74 179 4.0 6.0 0.00 0.00 0.00 81 1021.2
20260905201046 74 197 4.0 9.0 0.00 0.00 0.00 79 1021.1
20260905200547 74 268 3.0 10.0 0.00 0.00 0.00 79 1021.1
20260905200054 74 228 5.0 10.0 0.00 0.00 0.00 77 1021.1
20260905195543 75 261 3.0 5.0 0.00 0.00 0.00 75 1021.1
20260905195039 75 240 3.0 5.0 0.00 0.00 0.00 74 1021.1
20260905194537 75 238 2.0 5.0 0.00 0.00 0.00 73 1021.1
20260905194036 76 248 3.0 7.0 0.00 0.00 0.00 72 1021.0
20260905193538 76 226 5.0 7.0 0.00 0.00 0.00 71 1021.1
20260905193040 77 209 4.0 7.0 0.00 0.00 0.00 70 1021.0
20260905192548 77 227 3.0 6.0 0.00 0.00 0.00 70 1021.1
20260905191034 77 217 5.0 6.0 0.00 0.00 0.00 69 1020.8
20260905190528 77 197 4.0 6.0 0.00 0.00 0.00 68 1020.8
20260905185528 77 212 2.0 5.0 0.00 0.00 0.00 68 1020.7
20260905185018 78 176 4.0 5.0 0.00 0.00 0.00 68 1020.6
20260905184003 78 123 2.0 3.0 0.00 0.00 0.00 66 1020.5
20260905183519 78 279 0.0 5.0 0.00 0.00 0.00 66 1020.4
20260905183018 79 233 3.0 7.0 0.00 0.00 0.00 65 1020.3
20260905182515 79 309 4.0 7.0 0.00 0.00 0.00 65 1020.2
20260905182021 79 309 3.0 10.0 0.00 0.00 0.00 64 1020.2
20260905180947 80 133 5.0 12.0 0.00 0.00 0.00 63 1020.0
20260905180445 80 269 8.0 12.0 0.00 0.00 0.00 63 1020.0
20260905174936 81 204 5.0 13.0 0.00 0.00 0.00 62 1019.7
20260905174441 81 255 4.0 13.0 0.00 0.00 0.00 60 1019.8
20260905173937 81 162 4.0 13.0 0.00 0.00 0.00 60 1019.8
20260905173441 82 203 4.0 11.0 0.00 0.00 0.00 58 1019.8
20260905172935 82 220 4.0 12.0 0.00 0.00 0.00 55 1019.7
20260905172439 83 193 8.0 12.0 0.00 0.00 0.00 55 1019.6
20260905171936 83 233 4.0 12.0 0.00 0.00 0.00 53 1019.6
20260905171439 84 274 5.0 12.0 0.00 0.00 0.00 50 1019.7
20260905170935 84 192 5.0 12.0 0.00 0.00 0.00 50 1019.7
20260905170437 85 231 4.0 11.0 0.00 0.00 0.00 48 1019.7
20260905165936 85 155 4.0 11.0 0.00 0.00 0.00 47 1019.6
20260905165438 86 227 5.0 12.0 0.00 0.00 0.00 45 1019.6
20260905164934 86 182 3.0 13.0 0.00 0.00 0.00 44 1019.6
20260905164437 86 196 8.0 14.0 0.00 0.00 0.00 43 1019.5
20260905163936 86 269 8.0 14.0 0.00 0.00 0.00 42 1019.5
20260905163436 87 221 4.0 14.0 0.00 0.00 0.00 42 1019.6
20260905162935 87 276 5.0 12.0 0.00 0.00 0.00 42 1019.4
20260905162436 87 295 6.0 12.0 0.00 0.00 0.00 41 1019.4
20260905161936 87 230 6.0 13.0 0.00 0.00 0.00 41 1019.4
20260905161434 88 234 8.0 14.0 0.00 0.00 0.00 41 1019.4
20260905160936 88 220 7.0 14.0 0.00 0.00 0.00 41 1019.4
20260905160435 88 161 4.0 14.0 0.00 0.00 0.00 42 1019.4
20260905155938 88 238 8.0 14.0 0.00 0.00 0.00 42 1019.3
20260905155433 88 272 2.0 15.0 0.00 0.00 0.00 43 1019.4
20260905154935 89 245 10.0 15.0 0.00 0.00 0.00 43 1019.4
20260905153934 89 231 7.0 14.0 0.00 0.00 0.00 42 1019.3
20260905153433 89 252 7.0 16.0 0.00 0.00 0.00 41 1019.4
20260905152933 89 264 9.0 16.0 0.00 0.00 0.00 43 1019.3
20260905152432 90 193 11.0 15.0 0.00 0.00 0.00 43 1019.4
20260905151934 90 250 6.0 11.0 0.00 0.00 0.00 43 1019.3
20260905150435 90 247 7.0 13.0 0.00 0.00 0.00 41 1019.3
20260905145931 90 206 6.0 15.0 0.00 0.00 0.00 42 1019.4
20260905145432 90 274 5.0 15.0 0.00 0.00 0.00 41 1019.5
20260905143929 90 265 6.0 14.0 0.00 0.00 0.00 43 1019.5
20260905142927 90 209 9.0 16.0 0.00 0.00 0.00 42 1019.5
20260905142424 90 259 7.0 12.0 0.00 0.00 0.00 42 1019.6
20260905140911 90 199 7.0 15.0 0.00 0.00 0.00 41 1019.6
20260905140406 91 230 7.0 14.0 0.00 0.00 0.00 41 1019.5
20260905135834 91 266 7.0 13.0 0.00 0.00 0.00 40 1019.6
20260905135334 91 173 8.0 13.0 0.00 0.00 0.00 40 1019.6
20260905134834 91 209 4.0 7.0 0.00 0.00 0.00 39 1019.7
20260905134331 91 281 5.0 18.0 0.00 0.00 0.00 38 1019.7
20260905133332 91 252 2.0 11.0 0.00 0.00 0.00 39 1019.7
20260905132832 91 281 5.0 14.0 0.00 0.00 0.00 38 1019.8
20260905131832 91 268 12.0 17.0 0.00 0.00 0.00 38 1019.9
20260905131334 91 272 8.0 13.0 0.00 0.00 0.00 38 1020.0
20260905130830 91 203 5.0 11.0 0.00 0.00 0.00 37 1020.0
20260905130331 91 254 6.0 14.0 0.00 0.00 0.00 36 1020.1
20260905125831 90 266 6.0 14.0 0.00 0.00 0.00 37 1020.1
20260905125333 91 264 10.0 14.0 0.00 0.00 0.00 36 1020.2
20260905123831 91 264 4.0 11.0 0.00 0.00 0.00 36 1020.4
20260905123333 91 285 6.0 11.0 0.00 0.00 0.00 34 1020.2
20260905122829 91 254 4.0 12.0 0.00 0.00 0.00 35 1020.4
20260905121832 91 251 5.0 12.0 0.00 0.00 0.00 34 1020.4
20260905121332 91 210 2.0 15.0 0.00 0.00 0.00 40 1020.5
20260905120829 90 226 8.0 15.0 0.00 0.00 0.00 39 1020.5
20260905120334 90 235 6.0 14.0 0.00 0.00 0.00 41 1020.5
20260905115321 90 250 8.0 18.0 0.00 0.00 0.00 40 1020.5
20260905114818 90 166 2.0 16.0 0.00 0.00 0.00 43 1020.6
20260905114321 89 212 8.0 17.0 0.00 0.00 0.00 43 1020.6
20260905113818 89 219 10.0 17.0 0.00 0.00 0.00 41 1020.7
20260905113318 89 151 4.0 13.0 0.00 0.00 0.00 42 1020.6
20260905112818 89 217 4.0 13.0 0.00 0.00 0.00 44 1020.6
20260905112312 89 138 5.0 13.0 0.00 0.00 0.00 44 1020.7
20260905111814 89 141 7.0 14.0 0.00 0.00 0.00 45 1020.7
20260905111314 88 141 6.0 14.0 0.00 0.00 0.00 44 1020.7
20260905110812 88 179 8.0 14.0 0.00 0.00 0.00 45 1020.7
20260905105810 88 210 5.0 14.0 0.00 0.00 0.00 45 1020.7
20260905105306 88 186 8.0 13.0 0.00 0.00 0.00 45 1020.7
20260905104306 87 224 7.0 13.0 0.00 0.00 0.00 46 1020.8
20260905103807 87 217 9.0 13.0 0.00 0.00 0.00 45 1021.0
20260905103304 87 210 7.0 12.0 0.00 0.00 0.00 45 1021.0
20260905102808 87 203 6.0 12.0 0.00 0.00 0.00 46 1021.0
20260905102306 87 121 6.0 10.0 0.00 0.00 0.00 47 1021.1
20260905101303 86 162 8.0 11.0 0.00 0.00 0.00 48 1021.0
20260905100805 86 188 6.0 13.0 0.00 0.00 0.00 49 1021.0
20260905095306 85 193 4.0 7.0 0.00 0.00 0.00 52 1021.1
20260905094803 85 214 5.0 7.0 0.00 0.00 0.00 51 1021.0
20260905094253 84 140 4.0 7.0 0.00 0.00 0.00 50 1021.1
20260905093754 85 202 5.0 7.0 0.00 0.00 0.00 52 1021.1
20260905093251 84 210 5.0 7.0 0.00 0.00 0.00 52 1021.2
20260905092750 83 145 6.0 9.0 0.00 0.00 0.00 53 1021.1
20260905092251 83 169 6.0 9.0 0.00 0.00 0.00 54 1021.2
20260905091750 83 212 4.0 9.0 0.00 0.00 0.00 54 1021.3
20260905091245 82 151 5.0 10.0 0.00 0.00 0.00 54 1021.1
20260905090739 82 223 6.0 11.0 0.00 0.00 0.00 55 1020.8
20260905090236 82 199 8.0 11.0 0.00 0.00 0.00 55 1021.0
20260905085733 81 200 5.0 11.0 0.00 0.00 0.00 57 1020.8
20260905085235 81 152 5.0 10.0 0.00 0.00 0.00 56 1020.8
20260905084732 81 161 5.0 10.0 0.00 0.00 0.00 56 1020.8
20260905084232 80 137 6.0 11.0 0.00 0.00 0.00 57 1020.8